Shelton, WA
on Wednesday, January 30, 2013

Wednesday
Previous Day Next Day
Daily Summary
 ActualAverage (KOLM)Record (KOLM)
Temperature
Mean Temperature °F 40°F  
Max Temperature 48°F 48°F 56°F (1960)
Min Temperature 46°F 33°F 6°F (1950)
Degree Days
Heating Degree Days 18 25  
Month to date heating degree days 760  
Since 1 July heating degree days 3030  
Cooling Degree Days 0 0  
Month to date cooling degree days 0  
Year to date cooling degree days 0  
Moisture
Dew Point 46°F   
Average Humidity 94    
Maximum Humidity 100    
Minimum Humidity 90    
Precipitation
Precipitation 0.13 in 0.24 in 1.08 in (1952)
Month to date precipitation 7.61  
Year to date precipitation 7.61  
Wind
Wind Speed 10 mph   
Max Wind Speed 15 mph   
Max Gust Speed 20 mph   
Visibility 10 miles   
Events Rain   

Key: T is trace of precipitation, MM is missing value
Source: NWS Daily Summary
Time(PST)TemperatureDew PointHumidity Pressure Visibility Wind DirectionWind SpeedGust SpeedPrecipitationEvents Conditions
12:53 AM 46.0°F 45.0°F 96% 30.32 in 10.0 miles SSW 6.9 mph - 0.00 in   Overcast
1:53 AM 46.0°F 45.0°F 96% 30.32 in 10.0 miles SW 8.1 mph - N/A   Overcast
2:53 AM 46.0°F 45.0°F 96% 30.31 in 10.0 miles SW 12.7 mph - N/A   Overcast
3:53 AM 46.9°F 45.0°F 93% 30.32 in 10.0 miles WSW 11.5 mph - N/A   Overcast
4:53 AM 46.0°F 45.0°F 96% 30.32 in 10.0 miles WSW 11.5 mph - N/A   Overcast
5:53 AM 46.0°F 45.0°F 96% 30.32 in 10.0 miles WSW 8.1 mph - 0.02 in Rain Light Rain
6:53 AM 46.0°F 45.0°F 96% 30.33 in 10.0 miles Variable 5.8 mph - 0.03 in Rain Light Rain
7:53 AM 46.0°F 45.0°F 96% 30.34 in 10.0 miles WSW 10.4 mph - 0.04 in Rain Light Rain
8:18 AM 46.4°F 44.6°F 93% 30.33 in 10.0 miles WSW 11.5 mph - 0.01 in Rain Light Rain
8:35 AM 46.4°F 44.6°F 93% 30.33 in 10.0 miles WSW 12.7 mph - 0.01 in Rain Light Rain
8:53 AM 46.9°F 45.0°F 93% 30.35 in 10.0 miles SW 11.5 mph - 0.01 in Rain Light Rain
9:42 AM 46.4°F 46.4°F 100% 30.34 in 10.0 miles SW 15.0 mph - 0.01 in   Overcast
9:53 AM 46.9°F 46.0°F 97% 30.35 in 10.0 miles SW 13.8 mph - 0.01 in Rain Light Rain
10:53 AM 48.0°F 46.0°F 93% 30.37 in 10.0 miles WSW 10.4 mph - 0.01 in Rain Light Rain
11:53 AM 48.0°F 46.9°F 96% 30.37 in 10.0 miles WSW 10.4 mph 19.6 mph 0.01 in Rain Light Rain
12:53 PM 48.9°F 46.9°F 93% 30.35 in 10.0 miles SW 13.8 mph - 0.00 in   Overcast
1:53 PM 48.9°F 46.0°F 90% 30.35 in 10.0 miles WSW 12.7 mph - N/A   Overcast
2:53 PM 48.9°F 46.9°F 93% 30.35 in 10.0 miles WSW 12.7 mph - N/A   Overcast
3:08 PM 48.2°F 46.4°F 93% 30.33 in 10.0 miles SW 11.5 mph 19.6 mph N/A   Overcast
3:53 PM 48.9°F 46.9°F 93% 30.35 in 10.0 miles WSW 11.5 mph - N/A   Overcast
4:50 PM 48.2°F 46.4°F 93% 30.34 in 10.0 miles WSW 5.8 mph - N/A   Overcast
4:53 PM 48.0°F 46.0°F 93% 30.35 in 10.0 miles WSW 8.1 mph - N/A   Overcast
5:53 PM 46.9°F 46.0°F 97% 30.35 in 10.0 miles WSW 5.8 mph - 0.00 in Rain Light Rain
6:53 PM 46.9°F 46.0°F 97% 30.36 in 10.0 miles WSW 9.2 mph - 0.00 in   Overcast
7:53 PM 46.9°F 45.0°F 93% 30.36 in 10.0 miles WSW 6.9 mph - N/A   Overcast
8:53 PM 46.0°F 45.0°F 96% 30.35 in 10.0 miles SW 6.9 mph - N/A   Overcast
9:53 PM 46.9°F 45.0°F 93% 30.35 in 10.0 miles WSW 12.7 mph - N/A   Overcast
10:53 PM 46.9°F 45.0°F 93% 30.35 in 10.0 miles WSW 13.8 mph 19.6 mph N/A   Overcast
11:53 PM 46.9°F 45.0°F 93% 30.36 in 10.0 miles West 8.1 mph - N/A   Overcast
Moon Phase
Jan. 30 Feb. 03 Feb. 10 Feb. 17 Feb. 25
Sunrise:07:40 AM (PST) Moon Rise:09:37 PM (PST)1/30
Sunset:05:12 PM (PST) Moon Set:08:52 AM (PST)1/30

Copyright © 2014 The Weather Underground, Inc.